Location: Central Falls
(41.8900°N, 71.3929°W)
Time: 13:01:37
(UTC+00:00)

A-11 Canister half - Pass Details

Date: 11 December 2023
Orbit: 1512 x 1687 km, 47.2° (Epoch: 20 February)

Event Time Altitude Azimuth Distance (km) Brightness Sun altitude
Rises 11:49:48 0° 289° (WNW) 4,892 - -3.0°
Exits shadow 11:50:40 - 286° (WNW) 4,694 10.9 -2.8°
Reaches altitude 10° 11:54:41 10° 269° (W) 3,925 10.6 -2.2°
Maximum altitude 11:59:53 16° 237° (WSW) 3,508 10.6 -1.3°
Drops below altitude 10° 12:05:08 10° 205° (SSW) 3,942 11.3 -0.5°
Sets 12:10:07 0° 185° (S) 4,925 12.1 0.3°
